Home   Weather   Radom   Past weeks

Flag for Poland Past Weather in Radom, Poland — Yesterday and Last 2 Weeks

Now
31 °F

Overcast.


Feels Like: 28 °F
Forecast: 31 / 40 °F
Wind: 3 mph from South

Location: Kielce

Current Time: Dec 7, 2016 at 3:48:30 pm

Latest Report: Dec 7, 2016 at 3:00 pm


Visibility: 6 mi

Pressure: 30.61 "Hg

Humidity: 80%

Dew Point: 26 °F

Location of RadomLocation

Past Weather in Radom — Graph

°F

Radom Temperature Yesterday

Maximum temperature yesterday: 33 °F (at 10:00 pm)
Minimum temperature yesterday: 26 °F (at 4:00 am)
Average temperature yesterday: 30 °F

High & Low Weather Summary for the Past Weeks

 TemperatureHumidityPressure
High54 °F (Nov 22, 2:00 pm)100% (Nov 24, 2:00 am)30.68 "Hg (Nov 24, 2:00 am)
Low17 °F (Dec 5, 7:00 am)53% (Dec 5, 3:00 pm)29.35 "Hg (Dec 2, 3:00 am)
Average32 °F88%30.17 "Hg
* Reported Nov 22 2:00 pm — Dec 7 2:00 pm, Radom, Weather by CustomWeather, © 2016

Note: Actual official high and low records may vary slightly from our data, if they occured in-between our weather recording intervals... More about our weather records

Advertising

Radom Weather History for the Previous 24 Hours

Scroll right to see more
 ConditionsComfort  
Time TempWeatherWind HumidityBarometerVisibility
2:00 pm
Wed, Dec 7
33 °FScattered clouds.6 mph74%30.63 "Hg6 mi
1:00 pm34 °FScattered clouds.3 mph76%30.63 "Hg6 mi
12:00 pm35 °FScattered clouds.2 mph76%30.65 "Hg6 mi
11:00 am33 °FFog.2 mph83%30.66 "Hg3 mi
10:00 am32 °FFog.1 mph93%30.68 "Hg2 mi
9:00 am30 °FFog.No wind95%30.68 "Hg2 mi
8:00 am29 °FFog.1 mph96%30.67 "Hg1 mi
7:00 am29 °FFog.1 mph96%30.65 "Hg1 mi
6:00 am30 °FFog.1 mph95%30.64 "Hg1 mi
5:00 am31 °FFog.1 mph95%30.62 "Hg1 mi
4:00 am32 °FFog.2 mph94%30.60 "Hg2 mi
3:00 am31 °FFog.2 mph95%30.58 "Hg1 mi
2:00 am32 °FFog.1 mph95%30.57 "Hg2 mi
1:00 am32 °FFog.2 mph91%30.55 "Hg2 mi
10:00 pm
Tue, Dec 6
33 °FSnow showers. Low clouds.3 mph93%30.50 "Hg1 mi
6:00 pm33 °FFog.3 mph94%30.42 "Hg1 mi
5:00 pm33 °FFog.5 mph94%30.40 "Hg2 mi
4:00 pm33 °FFog.3 mph94%30.37 "Hg2 mi
3:00 pm32 °FLow clouds.3 mph93%30.34 "Hg2 mi
Weather by CustomWeather, © 2016

See weather overviewHow to use our weather pages